Location: Handeloh
(53.2500°N, 9.8330°E)
Time: 08:23:07
(UTC+01:00)

S-56A Canister/Altair - Pass Details

Date: 22 November 2019
Orbit: 633 x 2500 km, 38.9° (Epoch: 08 December)

Event Time Altitude Azimuth Distance (km) Brightness Sun altitude
Rises 20:57:27 0° 263° (W) 4,292 12.0 -41.1°
Reaches altitude 10° 21:02:24 10° 239° (WSW) 2,895 10.7 -41.8°
Enters shadow 21:03:24 12° 232° (SW) 2,684 10.5 -41.9°
Maximum altitude 21:05:25 13° 213° (SSW) 2,409 - -42.2°
Drops below altitude 10° 21:08:04 10° 185° (S) 2,448 - -42.5°
Sets 21:11:35 0° 157° (SSE) 3,147 - -43.0°
